Regional Weather Roundup
Issued by NWS

Home | Current Version | Previous Version | Graphics & Text | Print | Product List | Glossary On
Versions: 1 2 3 4 5 6 7 8 9 10 11 12 13 14 15 16 17 18 19 20 21 22 23 24 25 26 27
000
ASUS45 KTFX 300210
RWRMT
MONTANA REGIONAL WEATHER ROUNDUP
NATIONAL WEATHER SERVICE GREAT FALLS MT
800 PM MDT SAT APR 29 2017

NOTE: "FAIR" INDICATES FEW OR NO CLOUDS BELOW 12000 FEET WITH NO
SIGNIFICANT WEATHER AND/OR OBSTRUCTIONS TO VISIBILITY.

MTZ001>007-043-300300-
WEST OF THE DIVIDE

CITY           SKY/WX    TMP DP  RH WIND       PRES   REMARKS
KALISPELL      CLOUDY    51  38  60 S6        30.05F
MISSOULA       MOCLDY    53  31  42 NW7       30.09F
BUTTE          CLOUDY    52  15  23 W9        30.07F
MULLAN PASS    CLOUDY    38  26  62 SW9       30.09F WCI  31
ANACONDA         N/A     50  19  29 NW6       30.09R
DEER LODGE       N/A     50  21  32 NW15      30.10S
EUREKA           N/A     54  30  40 S8        30.03F
HAMILTON         N/A     57  25  28 SW6       30.08F
LIBBY            N/A     54  32  43 SE7       30.04F
$$

MTZ008-052>055-300300-
SOUTHWEST MONTANA

CITY           SKY/WX    TMP DP  RH WIND       PRES   REMARKS
BOZEMAN        CLEAR     48  32  53 E6        30.07F
DILLON         CLOUDY    51  20  29 W9        30.06F
W YELLOWSTONE  PTCLDY    41  19  42 SW10      30.15R
$$

MTZ009-010-012-014-046-048-049-054-300300-
EAST SLOPES AND CENTRAL MONTANA

CITY           SKY/WX    TMP DP  RH WIND       PRES   REMARKS
CUT BANK       CLEAR     47  28  47 W18       30.02F
GREAT FALLS    PTCLDY    47  29  49 W6        30.04R
MALMSTROM AFB  CLEAR     54  25  32 W9        30.04F
HELENA         CLEAR     55  26  32 CALM      30.04F
AUGUSTA          N/A     46  25  43 W10       30.04F
BOWMANS CRNR     N/A     47  21  36 W13       30.04R
CHOTEAU          N/A     48  27  43 W7        30.05F
FAIRFIELD      MOCLDY    52  24  33 W12       30.03S
POWER            N/A     52  28  39 W5        30.03S
RAYNESFORD       N/A     50  27  41 W6        30.05S
ULM              N/A     53  32  44 NW6       30.04S
$$

MTZ011-013-016-021-045-047-050-051-300300-
NORTH CENTRAL MONTANA

CITY           SKY/WX    TMP DP  RH WIND       PRES   REMARKS
HAVRE          CLEAR     52  32  46 SW9       30.01F
LEWISTOWN      PTCLDY    44  35  70 SE7       30.07F
CHINOOK          N/A     52  37  58 E10       30.03F
DENTON           N/A     46  36  67 MISG      30.03F
FORT BENTON      N/A     55  28  35 MISG      30.04F
GEYSER           N/A     50  30  46 N5        30.05S
GRASS RANGE      N/A     45  37  74 S7        30.05F
JUDITH GAP       N/A     42  33  68 SW10      30.08F
STANFORD       MOCLDY    47  33  57 S6        30.05F
WINIFRED         N/A     45  34  65 S6        30.06F
$$

MTZ017>020-022>027-061-062-300300-
NORTHEAST MONTANA

CITY           SKY/WX    TMP DP  RH WIND       PRES   REMARKS
GLASGOW        CLOUDY    52  33  48 S6        30.09F
JORDAN           N/A     54  24  31 S9        30.09S
SIDNEY         CLOUDY    55  31  39 S3        30.12F
WOLF POINT     PTCLDY    56  30  37 SW3       30.10F
PLENTYWOOD       N/A     54  30  40 S10       30.10S
POPLAR           N/A     52  36  54 SE6       30.11F
$$

MTZ028>42-056>058-300300-
SOUTHCENTRAL AND SOUTHEAST MONTANA

CITY           SKY/WX    TMP DP  RH WIND       PRES   REMARKS
BAKER          CLEAR     46  29  51 S6        30.14F
BILLINGS       PTCLDY    53  26  35 SW5       30.10F
LIVINGSTON     CLEAR     50  26  39 SW8       30.07F
MILES CITY     CLEAR     55  25  31 S3        30.12F
BIG TIMBER     PTCLDY    48  32  53 SE7       30.11S
LAUREL           N/A     52  27  38 CALM      30.09
$$

REGIONAL REPORTS...DAKOTAS

CITY           SKY/WX    TMP DP  RH WIND       PRES   REMARKS
WILLISTON      CLOUDY    57  31  37 S5        30.12F
MINOT          PTCLDY    57  26  30 SW5       30.13F
DICKINSON      CLEAR     49  17  28 S7        30.12F
BEACH            N/A     46  28  49 S6        30.16F
TIOGA            N/A     52  30  43 S10       30.14F
WATFORD CITY     N/A     52  34  50 S3        30.12F
BISMARCK       MOCLDY    53  26  35 E7        30.16F
GRAND FORKS    MOCLDY    54  30  40 E7        30.21S
FARGO          PTCLDY    51  23  33 NE5       30.21S
BUFFALO SD       N/A     50  22  33 E9        30.09F
RAPID CITY     CLEAR     42  23  46 NE7       30.17R
$$

REGIONAL REPORTS...WYOMING/IDAHO/WASHINGTON

CITY           SKY/WX    TMP DP  RH WIND       PRES   REMARKS
GILLETTE       CLEAR     33  25  72 W6        30.18F WCI  28
SHERIDAN       CLEAR     38  30  73 S6        30.17F
BUFFALO WY     CLEAR     35  23  61 S8        30.18F WCI  29
CODY           CLEAR     44  26  49 S6        30.14S
YELLOWSTONE LA   N/A     32  21  64 CALM      30.18F
IDAHO FALLS    MOCLDY    51  28  41 SW10      30.16S
SALMON         PTCLDY    55  23  28 CALM      30.06R
BOISE          CLOUDY    59  27  29 NE3       30.15F
SPOKANE        CLOUDY    55  24  30 SW15      30.07F
$$

REGIONAL REPORTS...ALBERTA

CITY           SKY/WX    TMP DP  RH WIND       PRES   REMARKS
EDMONTON       PTCLDY    52  30  43 SE8       29.89F
CALGARY        MOCLDY    52  19  28 W10       29.89F
LETHBRIDGE     MOCLDY    52  30  43 W15G25    29.96F
MEDICINE HAT   PTCLDY    52  36  54 E8        29.96F
WATERTON GATE    N/A     46  28  49 SW12G18     N/A
CARDSTON         N/A     46  30  53 SW5         N/A
MILK RIVER       N/A     50  30  46 W15         N/A
$$

REGIONAL REPORTS...SASKATCHEWAN

CITY           SKY/WX    TMP DP  RH WIND       PRES   REMARKS
SWIFT CURRENT  CLOUDY    41  39  93 SE10G22   30.03S
REGINA         PTCLDY    50  27  40 S7        30.07F
SASKATOON      PTCLDY    50  25  37 W6        30.04F
CYPRESS HILLS    N/A     41  28  60 S6          N/A
VAL MARIE        N/A     46  39  76 S7          N/A
$$




USA.gov is the U.S. government's official web portal to all federal, state and local government web resources and services.